Terminal Aerodrome Forecast
Issued by NWS

Home | Current Version | Previous Version | Graphics & Text | Print | Product List | Glossary On
Versions: 1 2 3 4 5 6 7 8 9 10 11 12 13 14 15 16 17 18 19 20 21 22 23 24 25 26 27 28 29 30 31 32 33 34
000
FTUS43 KLOT 211600 AAB
TAFDPA
TAF AMD
KDPA 211610Z 2116/2212 01012G17KT P6SM SCT025 BKN035
      TEMPO 2116/2119 BKN025
     FM212000 03011G16KT P6SM BKN040
     FM220000 04005KT P6SM FEW040=

USA.gov is the U.S. government's official web portal to all federal, state and local government web resources and services.